Regional Weather Roundup
Issued by NWS Northern Indiana

Home | Current Version | Previous Version | Text Only | Print | Product List | Glossary On
Versions: 1 2 3 4 5 6 7 8 9 10 11 12 13 14 15 16 17 18 19 20 21 22 23 24 25 26 27 28 29 30 31 32 33 34 35 36 37 38 39 40 41 42 43 44 45 46 47 48 49 50
260
ASUS43 KIWX 241810
RWRIWX

KIWX WEATHER ROUNDUP
NATIONAL WEATHER SERVICE NORTHERN INDIANA
200 PM EDT WED MAY 24 2017

NOTE: "FAIR" INDICATES FEW OR NO CLOUDS BELOW 12,000 FEET WITH NO
SIGNIFICANT WEATHER AND/OR OBSTRUCTIONS TO VISIBILITY.

* THESE STATIONS ARE NOT UNDER NWS QUALITY CONTROL. THEY ALSO MAY NOT
  REPORT WEATHER SUCH AS PRECIPITATION OR FOG.

INZ001>027-241900-
NORTHERN INDIANA

CITY           SKY/WX    TMP DP  RH WIND       PRES   REMARKS
GARY*          CLOUDY    55  52  88 N12       29.55S
VALPARAISO     PTSUNNY   64  56  75 NW9       29.51F
6HR MIN TEMP:  56; 6HR MAX TEMP:  66;

MICHIGAN CITY* PTSUNNY   61  55  82 N12       29.52F
LAPORTE*       LGT RAIN  64  58  78 NW10      29.51S
6HR MIN TEMP:  54; 6HR MAX TEMP:  66;

KNOX*          CLOUDY    66  48  52 CALM      29.49F
SOUTH BEND     PTSUNNY   69  56  62 E7        29.49F
ELKHART*       MOSUNNY   72  55  56 NE9       29.49F
GOSHEN         PTSUNNY   71  49  45 E9        29.49F
6HR MIN TEMP:  57; 6HR MAX TEMP:  72;

MONTICELLO*    CLOUDY    63  56  77 N6        29.49S
6HR MIN TEMP:  57; 6HR MAX TEMP:  63;

LOGANSPORT*    LGT RAIN  63  54  72 N3        29.50S
ROCHESTER*     DRIZZLE   68  55  64 CALM      29.49F
WARSAW*        MOSUNNY   68  52  56 E8        29.49F
ANGOLA*        PTSUNNY   70  61  73 E9        29.49F
FORT WAYNE     LGT RAIN  69  59  70 E7        29.48F
6HR MIN TEMP:  58; 6HR MAX TEMP:  69; 6HR PCP: TRACE;

HUNTINGTON*    LGT RAIN  66  58  75 E3        29.48F
PERU/GRISSOM   LGT RAIN  63  60  89 W5        29.47F
6HR MIN TEMP:  57; 6HR MAX TEMP:  65; 6HR PCP:  0.02;

MARION*        RAIN      59  55  88 W5        29.50F

$$
INZ028>050-241900-
CENTRAL INDIANA

CITY           SKY/WX    TMP DP  RH WIND       PRES   REMARKS
LAFAYETTE      LGT RAIN  62  58  86 N5        29.49F
6HR MIN TEMP:  58; 6HR MAX TEMP:  62; 6HR PCP: TRACE;

KOKOMO*        RAIN      62  58  86 NW5       29.50F
6HR MIN TEMP:  57; 6HR MAX TEMP:  65; 6HR PCP:  0.04;

MUNCIE*        LGT RAIN  59  55  87 W8        29.48F FOG
6HR MIN TEMP:  58; 6HR MAX TEMP:  67;

INDIANAPOLIS   NOT AVBL

$$
MIZ043>046-050>051-056>058-064>065-071>073-077>080-241900-
SOUTHWEST LOWER MICHIGAN

CITY           SKY/WX    TMP DP  RH WIND       PRES   REMARKS
BATTLE CREEK   PTSUNNY   66  57  72 NE12      29.54F
6HR MIN TEMP:  56; 6HR MAX TEMP:  70; 6HR PCP: TRACE;

BENTON HARBOR  MOSUNNY   68  55  63 N8        29.51F
6HR MIN TEMP:  58; 6HR MAX TEMP:  71;

COLDWATER*     CLOUDY    68  60  75 NE6       29.51F
6HR MIN TEMP:  57; 6HR MAX TEMP:  68;

HILLSDALE*     PTSUNNY   66  55  68 E15G22    29.52F
HOLLAND        CLOUDY    70  56  61 E9        29.54F
6HR MIN TEMP:  57; 6HR MAX TEMP:  70; 6HR PCP: TRACE;

GRAND RAPIDS   PTSUNNY   68  57  68 E16       29.55F
6HR MIN TEMP:  57; 6HR MAX TEMP:  69; 6HR PCP: TRACE;

KALAMAZOO      SUNNY     71  51  49 VRB5      29.52F
6HR MIN TEMP:  56; 6HR MAX TEMP:  72; 6HR PCP: TRACE;

STURGIS*       MOSUNNY   69  56  64 NE10      29.50F
6HR MIN TEMP:  55; 6HR MAX TEMP:  70;

THREE RIVERS*  PTSUNNY   69  51  51 E13       29.51F
6HR MIN TEMP:  56; 6HR MAX TEMP:  71;


$$
OHZ001>008-015>018-024>025-241900-
NORTHWEST OHIO

CITY           SKY/WX    TMP DP  RH WIND       PRES   REMARKS
WAUSEON*       CLOUDY    66  59  77 E21       29.51F
DEFIANCE       CLOUDY    69  56  62 VRB7      29.48F
6HR MIN TEMP:  57; 6HR MAX TEMP:  70;

FINDLAY        PTSUNNY   72  54  53 E16       29.48F
6HR MIN TEMP:  62; 6HR MAX TEMP:  73;

TOLEDO EXPRESS LGT RAIN  61  61 100 NE16      29.53F
6HR MIN TEMP:  59; 6HR MAX TEMP:  67; 6HR PCP:  0.35;

TOLEDO METCALF CLOUDY    65  59  81 NE14      29.54F
6HR MIN TEMP:  61; 6HR MAX TEMP:  69;

LIMA           CLOUDY    70  58  65 E10       29.47F
6HR MIN TEMP:  61; 6HR MAX TEMP:  71;


$$
AND FOR LAKE MICHIGAN COASTAL AND OPEN LAKE BUOY OBSERVATIONS

STATION/POSITION TEMP    WIND        PRES    VSBY  WAVE
                 AIR SEA DIR/SP/G                  HT/PER
                 (F)     (DEG/KT/KT) (MB)    (MI)  (FT/S)
CALUMET HARBOR    54     350/  9/ 15 1000.4S
MICHIGAN CITY     53     360/ 11/ 12   N/A
BURNS HARBOR      53      30/  9/ 11 1000.7F
SOUTH LAKE BUOY   49 45   20/ 17/ 19 1001.3          2/ 4
4 MI NW BRIDGMAN  55 57   30/ 14/ 17  999.7          3/ 4
MICHIGAN CITY     52 54   20/ 12/ 16   N/A           3/ 4

$$
&&




USA.gov is the U.S. government's official web portal to all federal, state and local government web resources and services.